This is the latest recevied weather packets stored in our database for station/object KB0BS-13. If no packets are shown the sender has not sent any weather packets the latest 10 day(s).
| Time | Temp. | Humidity | Pressure | Rain* | Wind** | Luminosity | Snow |
|---|---|---|---|---|---|---|---|
| 1777382503 | 9.44° C | 99% | 1001.4 hPa | 0 mm | - | 31 W/m² | - |
| 1777382200 | 10° C | 99% | 1001 hPa | 0 mm | - | 31 W/m² | - |
| 1777381897 | 10° C | 99% | 1001 hPa | 0 mm | - | 30 W/m² | - |
| 1777381595 | 10.56° C | 99% | 1000.8 hPa | 0 mm | - | 23 W/m² | - |
| 1777381292 | 10.56° C | 99% | 1000.4 hPa | 0 mm | - | 33 W/m² | - |
| 1777380989 | 10.56° C | 99% | 1000.5 hPa | 0 mm | - | 32 W/m² | - |
| 1777380685 | 10.56° C | 99% | 1000.4 hPa | 0 mm | - | 29 W/m² | - |
| 1777380381 | 10.56° C | 99% | 1000.4 hPa | 0 mm | - | 26 W/m² | - |
| 1777380078 | 10.56° C | 99% | 1000.4 hPa | 0 mm | - | 26 W/m² | - |
| 1777379774 | 10.56° C | 99% | 1000.1 hPa | 0 mm | - | 25 W/m² | - |
| 1777379469 | 11.11° C | 99% | 1000.2 hPa | 0 mm | - | 18 W/m² | - |
| 1777379165 | 11.11° C | 99% | 999.8 hPa | 0 mm | - | 18 W/m² | - |
| 1777378860 | 11.11° C | 99% | 999.8 hPa | 0 mm | - | 18 W/m² | - |
| 1777378556 | 11.11° C | 99% | 999.9 hPa | 0 mm | - | 22 W/m² | - |
| 1777378253 | 11.11° C | 99% | 999.6 hPa | 0 mm | - | 17 W/m² | - |
| 1777377950 | 11.11° C | 99% | 999.6 hPa | 0 mm | - | 24 W/m² | - |
| 1777377650 | 11.11° C | 99% | 999.6 hPa | 0 mm | - | 16 W/m² | - |
| 1777377346 | 11.11° C | 99% | 999.6 hPa | 0 mm | - | 16 W/m² | - |
| 1777377043 | 11.11° C | 99% | 999.6 hPa | 0 mm | - | 12 W/m² | - |
| 1777376740 | 11.67° C | 99% | 999.5 hPa | 0 mm | - | 9 W/m² | - |
| 1777376438 | 11.67° C | 99% | 999.4 hPa | 0 mm | - | 8 W/m² | - |
| 1777376133 | 11.67° C | 99% | 999.4 hPa | 0 mm | - | 6 W/m² | - |
| 1777375833 | 11.67° C | 99% | 999.4 hPa | 0 mm | - | 6 W/m² | - |
| 1777375528 | 11.67° C | 99% | 999.3 hPa | 0 mm | - | 6 W/m² | - |
| 1777375224 | 11.67° C | 99% | 999.2 hPa | 0 mm | - | 6 W/m² | - |
* Rain latest hour (hover to see other rain measurements)
** Current wind speed in m/s (hover to see current wind gust speed)